FENGYUN 2E

Last updated on Sun Jun 09 2024 00:02:17 GMT+0000 (Coordinated Universal Time)

1 33463U 08066A 24159.90227657 -.00000045 00000+0 00000+0 0 9996 2 33463 7.5651 60.6585 0002153 36.1011 216.8109 0.99118135 56676
UTC large
Height (km)
Speed (km/s)
/
Latitude / Longitude
Inclination (degrees)
Orbital Period (minutes)
Azimuth
Elevation
Range (km)
Doppler Factor

Next 0 passes for location: London (51.5072 / 0.1276)

Sorry there are no passes over London.
FENGYUN 2E